Torna al catalogo

COSMOS 1275 DEB

AttivoPO
NORAD 12745·DEBRIS·🇷🇺 Russia

Lanciato Jun 4, 1981 da Plesetsk Cosmodrome

Loading…

Prossimi Passaggi (prossime 24 ore)

TLE

AggiornatoSource: Space-Track

Epoca: Sep 14, 2026, 10:24 UTC

1 12745U 81053CN  26257.43357444  .00000343  00000-0  25455-3 0  9996
2 12745  83.1354  63.7556 0046976  38.0248 351.2670 13.91847072271493

Traccia COSMOS 1275 DEB in tempo reale con AllMySat

Download on the App Store